logo
Rechercher aéroport 
image banner adimage banner adimage banner ad
image banner ad

SGYVYT - Yvytu

Situé à San Bernardino, Paraguay

ICAO - , IATA -

Données fournies par Airmate  

Information générale

Coordonnées: S25°21'19" W57°15'15"
Élévation : 274 feet MSL.
Variation magnétique : -15° East
Voir autres Aéroports à Central Department

Données opérationnelles

Special qualification required
Heure actuelle UTC:
Heure actuelle locale:
METAR: SGAS 232100Z 09006KT CAVOK 27/17 Q1015
TAF: TAF SGAS 231700Z 2318/2418 03008KT CAVOK TX31/2319Z TN18/2410Z PROB30 2321/2323 09006KT 6000 NSC
Voir NOTAMs / SUP AIP / TFR affectant cet aéroport [VIEW]
Fréquences de communication: [VIEW]

Pistes:

Identifiant RWYQFULongueur (ft)Largeur (ft)SurfaceLDA (ft)
26245°2736101GRAS
0865°2736101GRAS

Coordonnées de l'aéroport

Adresse: San Bernardino Paraguay

Vue satellite de SGYVYT